Home > Weather > Dudley > Past weeks

Flag for United Kingdom Weather for the Past 2 Weeks in Dudley, England, United Kingdom

Now
39 °F

Clear.


Feels Like: 34 °F
Forecast: 38 / 49 °F
Wind: 8 mph from Southwest

Location: Birmingham / Airport

Current Time: Feb 7, 2016 at 5:04:27 AM

Latest Report: Feb 7, 2016 at 4:20 AM


Visibility: 10 mi

Pressure: 29.15 "Hg

Humidity: 93%

Dew point: 37 °F

Location of DudleyLocation

Historic Weather in Dudley — Graph

°F

Dudley Temperature Yesterday

Maximum temperature yesterday: 52 °F (at 11:50 AM)
Minimum temperature yesterday: 41 °F (at 11:50 PM)
Average temperature yesterday: 47 °F

High & Low Weather Summary for the Past Weeks

 TemperatureHumidityPressure
High57 °F (Jan 25, 2:50 PM)100% (Jan 23, 5:50 AM)30.39 "Hg (Jan 23, 5:50 AM)
Low36 °F (Jan 28, 7:20 AM)53% (Feb 2, 12:20 PM)29.03 "Hg (Feb 6, 5:50 PM)
Average48 °F87%29.90 "Hg
* Reported Jan 23 3:20 AM — Feb 7 3:20 AM, Dudley, Weather by CustomWeather, © 2016

Note: Actual official high and low records may vary slightly from our data, if they occured in-between our weather recording intervals... More about our weather records

Advertising

Dudley Weather History for the Previous 24 Hours

 ConditionsComfort  
Time TempWeatherWind HumidityBarometerVisibility
3:20 AM
Sun, Feb 7
39 °FClear.9 mph93%29.12 "Hg10 mi
2:50 AM41 °FClear.8 mph93%29.12 "Hg10 mi
2:20 AM41 °FPassing clouds.7 mph93%29.12 "HgN/A
1:20 AM41 °FClear.8 mph93%29.09 "Hg10 mi
12:50 AM41 °FClear.8 mph93%29.09 "Hg10 mi
12:20 AM41 °FPassing clouds.7 mph93%29.09 "HgN/A
11:50 PM
Sat, Feb 6
41 °FPassing clouds.7 mph100%29.09 "HgN/A
11:20 PM43 °FPassing clouds.8 mph93%29.06 "HgN/A
10:50 PM43 °FLight rain. Passing clouds.7 mph93%29.06 "HgN/A
10:20 PM43 °FLight rain. Mostly cloudy.7 mph93%29.06 "HgN/A
9:50 PM43 °FLight rain. Mostly cloudy.8 mph93%29.06 "HgN/A
8:50 PM46 °FRain. Partly cloudy.8 mph100%29.03 "Hg6 mi
8:20 PM46 °FLight rain. Partly cloudy.7 mph100%29.03 "HgN/A
7:50 PM46 °FRain. Partly cloudy.12 mph100%29.03 "Hg4 mi
7:20 PM48 °FRain. Passing clouds.15 mph100%29.03 "Hg6 mi
6:50 PM48 °FRain. Partly cloudy.16 mph94%29.03 "HgN/A
6:20 PM48 °FRain. Partly cloudy.20 mph100%29.03 "HgN/A
5:50 PM50 °FRain. Partly cloudy.18 mph94%29.03 "Hg6 mi
5:20 PM50 °FRain. Partly cloudy.21 mph94%29.06 "Hg4 mi
4:50 PM50 °FRain. Broken clouds.18 mph94%29.09 "Hg3 mi
4:20 PM50 °FRain. Broken clouds.18 mph94%29.09 "Hg3 mi
3:50 PM50 °FRain. Broken clouds.16 mph94%29.12 "Hg3 mi
3:20 PM50 °FRain. Broken clouds.18 mph94%29.12 "Hg5 mi
2:50 PM50 °FRain. Broken clouds.20 mph94%29.15 "Hg5 mi
2:20 PM50 °FRain. Broken clouds.21 mph94%29.15 "Hg4 mi
1:50 PM50 °FLight rain. Partly sunny.21 mph94%29.18 "Hg6 mi
1:20 PM52 °FLight rain. Partly sunny.22 mph94%29.21 "HgN/A
12:50 PM52 °FLight rain. Partly sunny.22 mph94%29.21 "HgN/A
12:20 PM52 °FLight rain. Partly sunny.22 mph94%29.24 "HgN/A
11:50 AM52 °FLight rain. Partly sunny.20 mph94%29.27 "HgN/A
11:20 AM50 °FRain. Broken clouds.21 mph100%29.30 "Hg4 mi
10:50 AM48 °FRain. Broken clouds.16 mph100%29.30 "Hg4 mi
10:20 AM48 °FRain. Broken clouds.9 mph100%29.33 "Hg3 mi
9:50 AM46 °FLight rain. Broken clouds.9 mph100%29.36 "Hg4 mi
9:20 AM46 °FLight rain. Partly sunny.9 mph100%29.39 "Hg3 mi
8:50 AM48 °FLight rain. Partly sunny.13 mph94%29.42 "Hg6 mi
8:20 AM48 °FRain. Broken clouds.8 mph100%29.45 "Hg2 mi
7:50 AM48 °FRain. Broken clouds.12 mph100%29.45 "Hg3 mi
7:20 AM46 °FLight rain. Passing clouds.8 mph100%29.47 "HgN/A
6:50 AM45 °FLight rain. Partly cloudy.6 mph100%29.47 "HgN/A
6:20 AM45 °FLight rain. Partly cloudy.5 mph100%29.50 "Hg3 mi
5:50 AM43 °FLight rain. Mostly cloudy.7 mph100%29.53 "Hg5 mi
5:20 AM43 °FDrizzle. Mostly cloudy.6 mph100%29.53 "Hg6 mi
Weather by CustomWeather, © 2016

See weather overviewHow to use our weather pages